Progress Software PE Ratio 2010-2024 | PRGS

Current and historical p/e ratio for Progress Software (PRGS) from 2010 to 2024. The price to earnings ratio is calculated by taking the latest closing price and dividing it by the most recent earnings per share (EPS) number. The PE ratio is a simple way to assess whether a stock is over or under valued and is the most widely used valuation measure. Progress Software PE ratio as of June 12, 2024 is 13.86.

Please refer to the Stock Price Adjustment Guide for more information on our historical prices.

Progress Software PE Ratio Historical Data
Date Stock Price TTM Net EPS PE Ratio
2024-06-12 50.57 32.84
2024-02-29 53.17 $1.54 34.53
2023-11-30 53.50 $1.56 34.29
2023-08-31 60.23 $1.76 34.22
2023-05-31 59.23 $1.84 32.19
2023-02-28 56.54 $2.23 25.35
2022-11-30 52.33 $2.16 24.22
2022-08-31 47.08 $1.95 24.14
2022-05-31 47.08 $2.15 21.90
2022-02-28 42.81 $1.79 23.91
2021-11-30 46.86 $1.75 26.78
2021-08-31 44.87 $1.81 24.79
2021-05-31 42.79 $1.64 26.09
2021-02-28 40.69 $1.71 23.79
2020-11-30 38.19 $1.75 21.83
2020-08-31 35.93 $1.25 28.75
2020-05-31 38.15 $1.02 37.40
2020-02-29 35.07 $0.83 42.25
2019-11-30 39.33 $0.58 67.81
2019-08-31 35.23 $1.10 32.03
2019-05-31 38.04 $1.17 32.52
2019-02-28 34.03 $1.32 25.78
2018-11-30 32.40 $1.38 23.48
2018-08-31 37.55 $1.31 28.66
2018-05-31 34.63 $1.17 29.60
2018-02-28 42.69 $1.05 40.66
2017-11-30 37.54 $0.77 48.75
2017-08-31 30.39 $-1.09 0.00
2017-05-31 26.33 $-1.17 0.00
2017-02-28 25.75 $-1.24 0.00
2016-11-30 26.43 $-1.17 0.00
2016-08-31 25.83 $0.16 161.41
2016-05-31 23.44 $-0.07 0.00
2016-02-29 22.45 $-0.10 0.00
2015-11-30 21.36 $-0.18 0.00
2015-08-31 24.12 $0.29 83.16
2015-05-31 23.44 $0.59 39.73
2015-02-28 24.34 $0.73 33.34
2014-11-30 22.96 $1.04 22.08
2014-08-31 20.62 $1.22 16.90
2014-05-31 19.34 $1.07 18.07
2013-11-30 23.45 $1.35 17.37
2013-08-31 21.78 $1.63 13.36
2013-05-31 20.93 $1.38 15.17
2013-02-28 20.05 $1.40 14.32
2012-11-30 17.90 $0.84 21.31
2014-02-28 22.20 $0.39 56.93
2012-08-31 17.12 $0.36 47.55
2012-05-31 17.11 $0.40 42.78
2012-02-29 20.67 $0.69 29.96
2011-11-30 18.13 $0.86 21.09
2011-08-31 18.54 $0.99 18.66
2011-05-31 24.10 $1.00 24.02
2011-02-28 26.14 $1.03 25.38
2010-11-30 22.86 $0.73 31.46
2010-08-31 15.85 $0.68 23.31
2010-05-31 18.96 $0.63 30.24
2010-02-28 16.63 $0.45 36.68
2009-11-30 14.29 $0.53 27.13
Sector Industry Market Cap Revenue
Computer and Technology Computer Software $2.181B $0.694B
Progress offers the leading platform for developing and deploying mission-critical business applications. Progress empowers enterprises and ISVs to build and deliver cognitive-first applications that harness big data to derive business insights and competitive advantage. Progress offers leading technologies for easily building powerful user interfaces across any type of device, a reliable, scalable and secure backend platform to deploy modern applications, leading data connectivity to all sources, and award-winning predictive analytics that brings the power of machine learning to any organization.
Stock Name Country Market Cap PE Ratio
Microsoft (MSFT) United States $3215.810B 37.46
Oracle (ORCL) United States $340.484B 27.71
Salesforce (CRM) United States $233.519B 34.78
Adobe (ADBE) United States $207.285B 34.66
Intuit (INTU) United States $158.419B 49.36
Synopsys (SNPS) United States $88.852B 61.24
Cadence Design Systems (CDNS) United States $81.953B 77.93
Dassault Systemes SA (DASTY) France $52.828B 34.32
Autodesk (ADSK) United States $45.684B 41.55
ANSYS (ANSS) United States $28.209B 52.20
MicroStrategy (MSTR) United States $27.590B 0.00
PTC (PTC) United States $20.888B 55.40
SS&C Technologies Holdings (SSNC) United States $15.186B 14.38
Manhattan Associates (MANH) United States $13.934B 73.96
Descartes Systems Group (DSGX) Canada $7.869B 65.89
Open Text (OTEX) Canada $7.730B 7.78
Trend Micro (TMICY) Japan $6.420B 46.50
Pegasystems (PEGA) United States $4.962B 43.88
CommVault Systems (CVLT) United States $4.906B 80.16
Blackbaud (BLKB) United States $3.962B 34.11
ACI Worldwide (ACIW) United States $3.622B 17.35
Verint Systems (VRNT) United States $2.261B 21.18
Sapiens (SPNS) Israel $1.876B 25.58
BlackBerry (BB) Canada $1.629B 0.00
PROS Holdings (PRO) United States $1.303B 0.00
Simulations Plus (SLP) United States $0.921B 67.75
Rand Worldwide (RWWI) United States $0.689B 0.00
Magic Software Enterprises (MGIC) Israel $0.524B 11.12
American Software (AMSWA) United States $0.311B 26.74
Canaan (CAN) China $0.300B 0.00
OptimizeRx (OPRX) United States $0.207B 0.00
Rigetti Computing (RGTI) United States $0.181B 0.00
Icad Inc (ICAD) United States $0.041B 0.00
Neonode (NEON) Sweden $0.035B 0.00
Wetouch Technology (WETH) $0.034B 0.00
NetSol Technologies (NTWK) United States $0.031B 0.00
Hanryu Holdings (HRYU) South Korea $0.022B 0.00
Smith Micro Software (SMSI) United States $0.021B 0.00
GSE Systems (GVP) United States $0.012B 0.00
SAP SE (SAP) Germany $0.000B 48.27